OE-11138 Weather Reports


time (UTC)temp
C
wind
direction
speed
KPH
gust
KPH
rain 1hr
cm
rain 24hr
cm
rain mn
cm
humidity
%
barometer
mb
20260903073524 8 9 4.8 9.7 0.00 1.04 0.00 69 718.7
20260903072524 8 49 4.8 8.0 0.00 1.04 0.00 70 718.6
20260903071138 7 46 4.8 9.7 0.00 1.04 0.00 72 718.5
20260903070525 7 35 4.8 9.7 0.00 1.04 0.00 70 718.4
20260903065525 7 20 6.4 11.3 0.00 1.04 0.00 72 718.3
20260903064137 7 10 6.4 11.3 0.00 1.04 0.00 72 718.2
20260903063524 7 3 6.4 9.7 0.00 1.04 0.00 73 718.1
20260903062525 7 360 4.8 8.0 0.00 1.04 0.00 74 718.1
20260903061138 7 9 8.0 14.5 0.00 1.04 0.00 73 718.1
20260903060525 7 15 8.0 12.9 0.00 1.04 0.00 73 718.0
20260903055524 7 4 6.4 11.3 0.00 1.04 0.00 73 718.0
20260903054137 7 360 6.4 9.7 0.00 1.04 0.00 72 717.9
20260903053525 7 344 4.8 8.0 0.00 1.04 0.00 73 717.9
20260903052525 7 6 8.0 9.7 0.00 1.04 0.00 73 717.9
20260903051138 7 7 8.0 14.5 0.00 1.04 0.00 73 717.9
20260903050524 7 1 6.4 11.3 0.00 1.04 0.00 73 717.8
20260903045525 7 38 8.0 12.9 0.00 1.04 0.00 72 717.8
20260903044137 7 36 6.4 19.3 0.00 1.04 0.00 70 717.8
20260903043524 7 40 6.4 16.1 0.00 1.04 0.00 71 717.8
20260903042525 7 24 6.4 11.3 0.00 1.04 0.00 74 717.8
20260903041137 7 7 6.4 11.3 0.00 1.04 0.00 73 717.9
20260903040525 7 17 6.4 12.9 0.00 1.04 0.00 72 717.9
20260903035525 7 36 4.8 12.9 0.00 1.04 0.00 75 717.8
20260903034524 7 58 6.4 9.7 0.00 1.04 0.00 75 717.8
20260903033525 7 40 8.0 11.3 0.00 1.04 0.00 74 717.9
20260903032525 7 22 8.0 11.3 0.00 1.04 0.00 76 717.8
20260903031138 7 8 6.4 9.7 0.00 1.04 0.00 78 717.8
20260903030525 7 24 6.4 9.7 0.00 1.04 0.00 78 717.7
20260903025525 7 51 3.2 8.0 0.00 1.04 0.00 78 717.7
20260903024525 7 47 1.6 3.2 0.00 1.04 0.00 80 717.7
20260903023525 7 103 1.6 4.8 0.00 1.04 0.00 82 717.8
20260903022525 7 198 3.2 4.8 0.00 1.04 0.00 83 717.8
20260903021137 6 206 3.2 4.8 0.00 1.04 0.00 83 717.7
20260903020525 7 212 3.2 4.8 0.00 1.04 0.00 82 717.8
20260903015525 7 152 3.2 4.8 0.00 1.04 0.00 83 717.8
20260903014137 7 225 1.6 3.2 0.00 1.04 0.00 83 717.9
20260903013524 7 345 4.8 8.0 0.00 1.04 0.00 83 717.9
20260903012524 7 2 6.4 9.7 0.00 1.04 0.00 83 718.0
20260903011138 7 12 6.4 11.3 0.00 1.04 0.00 84 718.0
20260903010525 7 359 4.8 8.0 0.00 1.04 0.00 84 718.0
20260903005525 7 41 3.2 8.0 0.00 1.04 0.00 89 718.0
20260903004138 7 100 3.2 8.0 0.00 1.04 0.00 90 718.0
20260903003525 7 328 0.0 6.4 0.00 1.04 0.00 89 718.0
20260903002525 7 12 4.8 9.7 0.00 1.04 0.00 90 718.0
20260903001537 7 360 8.0 9.7 0.00 1.04 0.00 91 718.0
20260903000525 7 4 8.0 11.3 0.00 1.04 0.00 91 718.0
20260902235524 7 351 6.4 12.9 0.00 1.04 0.00 91 718.0
20260902234138 7 344 6.4 9.7 0.00 1.04 0.00 91 718.2
20260902233524 7 350 6.4 11.3 0.00 1.04 0.00 91 718.2
20260902232524 7 354 6.4 11.3 0.00 1.04 0.00 88 718.2
20260902231525 7 357 8.0 9.7 0.00 1.04 0.00 88 718.2
20260902230525 7 338 8.0 9.7 0.00 1.04 0.00 87 718.3
20260902225525 7 330 4.8 8.0 0.00 1.04 0.00 87 718.2
20260902224138 7 336 4.8 6.4 0.00 1.04 0.00 88 718.3
20260902223525 7 350 4.8 8.0 0.00 1.04 0.00 88 718.3
20260902222525 7 348 3.2 6.4 0.00 1.04 0.00 88 718.2
20260902221138 7 301 3.2 8.0 0.00 1.04 0.00 87 718.3
20260902220524 7 220 4.8 8.0 0.00 1.04 1.04 84 718.3
20260902215525 7 186 1.6 6.4 0.10 1.04 1.04 87 718.2
20260902214138 7 6 4.8 12.9 0.20 1.04 1.04 88 718.1
20260902213524 7 272 1.6 4.8 0.56 1.04 1.04 87 718.1
20260902211138 7 52 1.6 11.3 0.76 1.04 1.04 84 718.1
20260902210525 7 118 3.2 9.7 0.76 1.04 1.04 81 718.0
20260902205525 7 144 9.7 14.5 0.76 1.04 1.04 88 718.0
20260902204139 7 276 4.8 19.3 0.66 0.94 0.94 82 718.1
20260902203524 7 318 6.4 12.9 0.58 0.84 0.84 90 718.0
20260902202525 7 332 8.0 11.3 0.41 0.51 0.51 91 718.2
20260902201138 8 357 8.0 11.3 0.33 0.33 0.33 90 718.1
20260902200525 8 7 6.4 11.3 0.28 0.28 0.28 90 718.2
20260902195525 7 349 8.0 11.3 0.28 0.28 0.28 90 718.2
20260902194138 8 339 11.3 12.9 0.28 0.28 0.28 91 718.3
20260902193525 7 340 14.5 19.3 0.28 0.28 0.28 92 718.3
20260902192524 8 334 14.5 25.7 0.25 0.25 0.25 92 718.2
20260902191138 8 348 17.7 30.6 0.10 0.10 0.10 90 718.3
20260902190524 8 349 12.9 22.5 0.00 0.00 0.00 86 718.2
20260902185525 9 303 3.2 8.0 0.00 0.00 0.00 84 718.2
20260902184138 9 360 4.8 11.3 0.00 0.00 0.00 85 718.2
20260902183525 9 336 9.7 16.1 0.00 0.00 0.00 83 718.1
20260902182525 9 351 11.3 17.7 0.00 0.00 0.00 83 717.9
20260902181138 9 346 11.3 16.1 0.00 0.00 0.00 81 717.9
20260902180525 9 335 11.3 17.7 0.00 0.00 0.00 80 717.9
20260902175525 10 353 12.9 17.7 0.00 0.00 0.00 78 718.0
20260902174138 10 352 12.9 19.3 0.00 0.00 0.00 77 717.8
20260902173524 10 352 11.3 19.3 0.00 0.00 0.00 76 717.9
20260902172525 10 355 11.3 17.7 0.00 0.00 0.00 75 717.8
20260902171138 10 359 9.7 14.5 0.00 0.00 0.00 74 717.8
20260902170525 10 9 8.0 14.5 0.00 0.00 0.00 73 717.8
20260902165525 10 21 9.7 16.1 0.00 0.00 0.00 74 717.8
20260902164138 10 352 9.7 14.5 0.00 0.00 0.00 73 717.9
20260902163525 10 347 6.4 12.9 0.00 0.00 0.00 72 717.9
20260902162525 10 12 6.4 9.7 0.00 0.00 0.00 72 718.0
20260902161138 10 358 8.0 14.5 0.00 0.00 0.00 71 717.9
20260902160524 11 351 8.0 11.3 0.00 0.00 0.00 72 718.0
20260902155525 11 360 8.0 11.3 0.00 0.00 0.00 72 718.0
20260902154138 10 20 6.4 11.3 0.00 0.00 0.00 72 717.9
20260902153525 10 1 8.0 14.5 0.00 0.00 0.00 71 718.0
20260902152524 11 350 9.7 16.1 0.00 0.00 0.00 70 718.1
20260902151138 11 337 14.5 19.3 0.00 0.00 0.00 69 718.3
20260902150525 11 344 14.5 19.3 0.00 0.00 0.00 64 718.4
20260902145525 12 346 12.9 19.3 0.00 0.00 0.00 62 718.5
20260902144138 12 349 9.7 14.5 0.00 0.00 0.00 64 718.6
20260902143524 11 332 9.7 16.1 0.00 0.00 0.00 61 718.4
20260902142525 12 346 9.7 16.1 0.00 0.00 0.00 61 718.7
20260902141138 12 357 9.7 16.1 0.00 0.00 0.00 59 718.6
20260902140525 12 345 9.7 12.9 0.00 0.00 0.00 58 718.7
20260902135525 12 346 9.7 16.1 0.00 0.00 0.00 57 718.7
20260902134137 12 342 6.4 11.3 0.00 0.00 0.00 58 718.7
20260902133525 12 346 6.4 9.7 0.00 0.00 0.00 58 718.6
20260902132525 12 343 8.0 14.5 0.00 0.00 0.00 59 718.5
20260902131138 11 345 9.7 16.1 0.00 0.00 0.00 59 718.4
20260902130525 11 348 12.9 16.1 0.00 0.00 0.00 68 718.6
20260902125525 12 345 9.7 14.5 0.00 0.00 0.00 63 718.7
20260902124137 11 340 11.3 16.1 0.00 0.00 0.00 62 718.4
20260902123525 11 348 11.3 17.7 0.00 0.00 0.00 66 718.6
20260902122525 11 342 12.9 17.7 0.00 0.00 0.00 65 718.6
20260902121138 11 345 9.7 14.5 0.00 0.00 0.00 63 718.6
20260902120524 12 350 9.7 14.5 0.00 0.00 0.00 59 718.6
20260902115524 12 328 4.8 11.3 0.00 0.00 0.00 58 718.9
20260902114138 12 326 4.8 11.3 0.00 0.00 0.00 62 718.8
20260902113525 12 344 6.4 11.3 0.00 0.00 0.00 62 718.6
20260902112525 11 2 4.8 9.7 0.00 0.00 0.00 65 718.6
20260902111138 11 351 4.8 9.7 0.00 0.00 0.00 65 718.8
20260902110525 11 346 6.4 12.9 0.00 0.00 0.00 66 718.8
20260902105524 11 352 4.8 9.7 0.00 0.00 0.00 62 718.8
20260902104138 11 352 8.0 12.9 0.00 0.00 0.00 70 719.0
20260902103525 11 357 8.0 14.5 0.00 0.00 0.00 70 718.9
20260902102524 11 353 8.0 12.9 0.00 0.00 0.00 69 719.0
20260902101138 11 348 6.4 9.7 0.00 0.00 0.00 68 719.0
20260902100525 12 353 3.2 12.9 0.00 0.00 0.00 67 719.2
20260902095525 11 333 1.6 6.4 0.00 0.00 0.00 67 719.0
20260902094138 11 12 4.8 9.7 0.00 0.00 0.00 65 718.9
20260902093525 10 342 8.0 11.3 0.00 0.00 0.00 74 718.6
20260902092524 11 342 6.4 9.7 0.00 0.00 0.00 69 718.8
20260902091137 10 255 3.2 16.1 0.00 0.00 0.00 66 718.6
20260902090525 11 171 8.0 14.5 0.00 0.00 0.00 52 718.6
20260902084137 11 182 14.5 25.7 0.00 0.00 0.00 60 718.3
20260902083525 10 186 17.7 27.4 0.00 0.00 0.00 62 718.1
20260902082525 10 180 16.1 24.1 0.00 0.00 0.00 63 718.0
20260902081137 10 200 11.3 17.7 0.00 0.00 0.00 63 718.0
20260902080524 10 169 8.0 16.1 0.00 0.00 0.00 63 718.1
20260902075525 10 181 1.6 8.0 0.00 0.00 0.00 65 718.0
20260902074138 10 89 3.2 11.3 0.00 0.00 0.00 65 717.7